Retour au catalogue

PULSAR-0

ActifScienceSSO
NORAD 64541·PAYLOAD·🇺🇸 United States

Lancé Jun 23, 2025 depuis Vandenberg Space Force Base

Loading…

Prochains Passages (prochaines 24 heures)

TLE

FraisSource: Space-Track

Époque: Sep 14, 2026, 06:16 UTC

1 64541U 25135P   26257.26122800  .00002518  00000-0  11775-3 0  9999
2 64541  97.4775  11.1298 0002016 204.7741 155.3397 15.20700583 68364

Suivez PULSAR-0 en temps réel avec AllMySat

Download on the App Store